THOR ABLESTAR DEB, 148

Orbit data source: Space-Track

THOR ABLESTAR DEB, 148 is space debris in LEO originally from a launch on Thu, 29 Jun 1961 UTC launched from the Air Force Eastern Test Range (AFETR). Debris objects in space refer to the collection of defunct objects orbiting the Earth. Examples of debris include non-operational satellites, rocket bodies, and fragments generated from explosions, collisions, or faulty payload assembly.

Loading next visibility...
Identifier
148, 1961-015AJ
Orbit
LEO
Last TLE update
13 hours ago
Origin
Manufacturer
Unknown
Mission
Spacecraft
Bus & Motor
Unknown
Mass
Unknown
Launch date (UTC)
1961-06-29 (64 years ago)
Launch vehicle
Unknown
Launch site
Air Force Eastern Test Range (AFETR)
Object type
Payload
Rocket body
Debris
Shape & HBR
Unknown
Radar Cross Section
Medium (>0.1 m² and <1 m²)

Expand to show TLE details & history

TLE from 13 hours ago
0 THOR ABLESTAR DEB
1 00148U 61015AJ  25199.46658968  .00000561  00000-0  33708-3 0  9990
2 00148  65.7724 271.4295 0135235 136.7722 224.4068 14.10072801711912
Epoch: 2025-07-18T11:11Z
TLE epoch observation values (Epoch: 2025-07-18T11:11:53.348Z)
Latitude
-0.00005°
Longitude
166.93955°
Altitude
931.704 km
Speed
7.35 km/s
True Right ascension
18h 05m 43s
True Declination
0° 00' 00"
Sunlit
Object was in full shadow at epoch
Visualization orbit readout
Latitude
25.78766°
Longitude
-26.93102°
Altitude
766.74 km
Speed
7.522 km/s
Apparent Right ascension
03h 14m 40s
Apparent Declination
-5° 56' 07"
Sunlit
Object is in daylight
Visualization observer readout
Local Sidereal Time
12:37:02
Azimuth
303.238° NW
Elevation
-40.978°
Doppler factor
1
Orbital elements
Apogee altitude
955.474 km
Perigee altitude
759.769 km
Semi-major axis
7,235.758 km
Eccentricity
0.01352
Inclination
65.7724°
RAAN
271.4295°
Arg. of periapsis
136.7722°
True anomaly
223.33542°
Mean anomaly
224.4068°
Eccentric anomaly
223.86982°
Mean motion
3.52628 °/min
Orbital period
102.09 mins
BSTAR
0.00033708
Loading maneuver chart data...
Loading SW <> Apogee altitude chart data...
|